Location: Catacaguana
(10.4120°N, 66.7591°W)
Time: 04:00:22
(UTC+00:00)

deb Chang Zheng 4 - Pass Details

Date: 27 May 2022
Orbit: 582 x 599 km, 98.6° (Epoch: 24 June)

Event Time Altitude Azimuth Distance (km) Brightness Sun altitude
Exits shadow 00:16:47 49° 176° (S) 751 3.7 -21.5°
Maximum altitude 00:17:50 83° 259° (W) 589 3.4 -21.8°
Drops below altitude 10° 00:21:56 10° 346° (NNW) 1,893 6.6 -22.6°
Sets 00:24:05 0° 347° (NNW) 2,792 7.5 -23.1°
